TimeCDT,TemperatureF,Dew PointF,Humidity,Sea Level PressureIn,VisibilityMPH,Wind Direction,Wind SpeedMPH,Gust SpeedMPH,PrecipitationIn,Events,Conditions,WindDirDegrees,DateUTC
12:52 AM,34.0,28.0,79,30.10,10.0,WSW,3.5,-,N/A,,Overcast,240,2012-10-10 05:52:00
1:52 AM,34.0,28.0,79,30.10,10.0,West,3.5,-,N/A,,Overcast,270,2012-10-10 06:52:00
2:52 AM,33.1,26.1,75,30.10,10.0,Calm,Calm,-,N/A,,Overcast,0,2012-10-10 07:52:00
3:52 AM,30.0,25.0,82,30.10,10.0,Calm,Calm,-,N/A,,Clear,0,2012-10-10 08:52:00
4:52 AM,28.9,23.0,78,30.09,10.0,SW,3.5,-,N/A,,Clear,230,2012-10-10 09:52:00
5:52 AM,28.0,21.9,78,30.09,10.0,WSW,4.6,-,N/A,,Clear,250,2012-10-10 10:52:00
6:52 AM,26.1,21.0,81,30.09,10.0,WSW,4.6,-,N/A,,Clear,240,2012-10-10 11:52:00
7:52 AM,27.0,23.0,85,30.07,10.0,Calm,Calm,-,N/A,,Mostly Cloudy,0,2012-10-10 12:52:00
8:52 AM,28.9,25.0,85,30.04,10.0,SE,3.5,-,N/A,,Mostly Cloudy,140,2012-10-10 13:52:00
9:52 AM,30.9,26.1,82,30.03,10.0,SSE,8.1,-,N/A,,Overcast,150,2012-10-10 14:52:00
10:52 AM,35.6,26.6,70,29.97,10.0,SE,5.8,-,N/A,,Overcast,130,2012-10-10 15:52:00
11:52 AM,45.0,28.0,52,29.97,10.0,SE,9.2,-,N/A,,Mostly Cloudy,130,2012-10-10 16:52:00
12:29 PM,51.8,28.4,41,29.90,10.0,South,10.4,-,N/A,,Overcast,180,2012-10-10 17:29:00
12:52 PM,52.0,30.0,43,29.91,10.0,SSE,10.4,-,N/A,,Overcast,160,2012-10-10 17:52:00
1:52 PM,62.1,30.9,31,29.85,10.0,SSW,15.0,25.3,N/A,,Overcast,210,2012-10-10 18:52:00
2:52 PM,63.0,30.9,30,29.79,10.0,WSW,9.2,19.6,N/A,,Mostly Cloudy,240,2012-10-10 19:52:00
3:52 PM,66.0,30.0,26,29.76,10.0,West,17.3,24.2,N/A,,Mostly Cloudy,270,2012-10-10 20:52:00
4:52 PM,61.0,33.1,35,29.78,10.0,North,15.0,24.2,N/A,,Overcast,350,2012-10-10 21:52:00
5:52 PM,57.0,36.0,45,29.81,10.0,North,9.2,-,N/A,,Mostly Cloudy,350,2012-10-10 22:52:00
6:52 PM,51.1,36.0,56,29.87,10.0,North,13.8,-,0.00,Rain,Light Rain,10,2012-10-10 23:52:00
7:52 PM,46.0,36.0,68,29.92,10.0,NE,6.9,-,0.00,Rain,Light Rain,50,2012-10-11 00:52:00
8:52 PM,42.1,35.1,76,29.95,10.0,NNE,16.1,-,0.00,Rain,Light Rain,30,2012-10-11 01:52:00
9:52 PM,39.0,34.0,82,30.00,10.0,NE,12.7,-,0.00,,Overcast,40,2012-10-11 02:52:00
9:59 PM,37.4,33.8,87,29.95,10.0,NE,10.4,19.6,N/A,,Overcast,40,2012-10-11 02:59:00
10:52 PM,37.9,33.1,83,30.04,10.0,NNE,9.2,-,N/A,,Mostly Cloudy,20,2012-10-11 03:52:00
11:03 PM,37.4,33.8,87,29.99,10.0,NNE,6.9,-,N/A,,Mostly Cloudy,20,2012-10-11 04:03:00
11:52 PM,37.0,32.0,82,30.06,10.0,North,9.2,-,N/A,,Clear,360,2012-10-11 04:52:00